Williamsport, PA

11:01 PM EDT on September 16, 2019 (GMT -0400)
Williamsport Rgnl

Weather History for KIPT - August, 2019

Change the Weather History Date:

Saturday, August 17, 2019

  Actual Average Record
Temperature  
Mean Temperature 77 °F 71 °F  
Max Temperature 88 °F 82 °F 97 °F (1995)
Min Temperature 66 °F 61 °F 45 °F (1979)
Degree Days  
Heating Degree Days 0 0  
Month to date heating degree days 0 0  
Since 1 June heating degree days 29 41  
Since 1 July heating degree days 0 4  
Cooling Degree Days 12 7  
Month to date cooling degree days 150 124  
Year to date cooling degree days 686 557  
Since 1 June cooling degree days 634 514  
Growing Degree Days 27 (Base 50)    
Moisture  
Dew Point 66 °F    
Average Humidity 73    
Maximum Humidity 100    
Minimum Humidity 46    
Precipitation  
Precipitation 0.00 in 0.13 in 2.37 in (1994)
Month to date precipitation 1.45 2.16  
Year to date precipitation 34.27 25.33  
Sea Level Pressure  
Sea Level Pressure 29.97 in    
Wind  
Wind Speed 4 mph (WNW)    
Max Wind Speed 17 mph    
Max Gust Speed 29 mph    
Visibility 7 miles    
Events Fog , Thunderstorm    
T = Trace of Precipitation, MM = Missing Value Source: NWS Daily Summary

Daily Weather History Graph

Daily Weather History Graph

Search for Another Location

Airport or City:

Astronomy

Aug. 17, 2019 Rise Set
Actual Time 6:18 AM EDT 8:04 PM EDT
Civil Twilight 5:49 AM EDT 8:33 PM EDT
Nautical Twilight 5:13 AM EDT 9:09 PM EDT
Astronomical Twilight 4:34 AM EDT 9:47 PM EDT
Moon 9:29 PM EDT 8:05 AM EDT
Length of Visible Light 14h 44m
Length of Day
13h 45m
Waning Gibbous, 96% of the Moon is Illuminated
Aug 17
Waning Gibbous
Aug 23
Last Quarter
Aug 30
New
Sep 5
First Quarter
Sep 14
Full

Hourly Weather History & Observations

Time (EDT) Temp. Heat Index Dew Point Humidity Pressure Visibility Wind Dir Wind Speed Gust Speed Precip Events Conditions
12:54 AM 71.1 °F - 68.0 °F 90% 29.98 in 8.0 mi Calm Calm - N/A   Mostly Cloudy
1:54 AM 69.1 °F - 66.9 °F 93% 29.98 in 7.0 mi Calm Calm - N/A   Clear
2:54 AM 66.9 °F - 66.0 °F 97% 29.98 in 6.0 mi Calm Calm - N/A   Clear
3:43 AM 68.0 °F - 66.0 °F 93% 29.99 in 7.0 mi NNW 3.5 mph - N/A   Scattered Clouds
3:54 AM 66.9 °F - 64.9 °F 93% 29.98 in 6.0 mi Calm Calm - N/A   Partly Cloudy
4:07 AM 66.9 °F - 64.9 °F 93% 29.99 in 7.0 mi Calm Calm - N/A   Mostly Cloudy
4:15 AM 66.9 °F - 66.0 °F 97% 29.99 in 6.0 mi Calm Calm - N/A   Mostly Cloudy
4:54 AM 66.9 °F - 66.0 °F 97% 29.98 in 5.0 mi Calm Calm - N/A   Overcast
5:54 AM 68.0 °F - 66.0 °F 93% 29.99 in 5.0 mi Calm Calm - N/A   Overcast
6:34 AM 68.0 °F - 66.0 °F 93% 30.00 in 1.8 mi Calm Calm - N/A   Overcast
6:54 AM 68.0 °F - 66.0 °F 93% 29.99 in 0.8 mi Calm Calm - N/A   Overcast
7:23 AM 68.0 °F - 66.9 °F 96% 30.00 in 0.2 mi North 3.5 mph - N/A Fog Fog
7:37 AM 68.0 °F - 66.9 °F 96% 30.00 in 0.5 mi North 3.5 mph - N/A Fog Fog
7:54 AM 68.0 °F - 66.9 °F 96% 29.99 in 0.5 mi Calm Calm - N/A Fog Fog
8:33 AM 69.1 °F - 66.9 °F 93% 29.99 in 1.0 mi Calm Calm - N/A   Overcast
8:54 AM 69.1 °F - 68.0 °F 96% 29.98 in 2.5 mi Calm Calm - N/A   Overcast
9:03 AM 70.0 °F - 66.9 °F 90% 29.99 in 3.0 mi Calm Calm - N/A   Overcast
9:49 AM 71.6 °F - 68.0 °F 88% 30.00 in 6.0 mi Calm Calm - N/A   Overcast
9:54 AM 72.0 °F - 68.0 °F 87% 30.00 in 6.0 mi WSW 4.6 mph - N/A   Overcast
10:32 AM 73.9 °F - 69.1 °F 85% 30.01 in 6.0 mi WSW 4.6 mph - N/A   Haze
10:54 AM 75.0 °F - 69.1 °F 82% 29.99 in 8.0 mi Calm Calm - N/A   Scattered Clouds
11:54 AM 81.0 °F 84.1 °F 69.1 °F 67% 29.99 in 10.0 mi South 8.1 mph - N/A   Scattered Clouds
12:54 PM 82.9 °F 86.5 °F 69.1 °F 63% 29.97 in 10.0 mi SE 6.9 mph - N/A   Scattered Clouds
1:54 PM 84.0 °F 86.5 °F 66.9 °F 56% 29.96 in 10.0 mi SW 4.6 mph - N/A   Partly Cloudy
2:54 PM 86.0 °F 89.4 °F 68.0 °F 55% 29.94 in 10.0 mi Variable 6.9 mph - N/A   Mostly Cloudy
3:54 PM 86.0 °F 87.6 °F 64.9 °F 49% 29.92 in 10.0 mi South 8.1 mph - N/A   Scattered Clouds
4:54 PM 87.1 °F 88.9 °F 64.9 °F 48% 29.90 in 10.0 mi SW 6.9 mph - N/A   Partly Cloudy
5:54 PM 84.9 °F 88.8 °F 69.1 °F 59% 29.91 in 10.0 mi South 5.8 mph - N/A   Scattered Clouds
6:39 PM 84.0 °F 89.0 °F 71.1 °F 65% 29.93 in 10.0 mi Calm Calm - N/A Thunderstorm Mostly Cloudy
6:54 PM 78.1 °F - 61.0 °F 56% 29.95 in 10.0 mi North 16.1 mph 24.2 mph N/A   Overcast
7:54 PM 75.0 °F - 63.0 °F 66% 29.96 in 10.0 mi Calm Calm - N/A   Mostly Cloudy
8:54 PM 70.0 °F - 64.0 °F 81% 29.96 in 10.0 mi ESE 4.6 mph - N/A   Clear
9:54 PM 70.0 °F - 64.9 °F 84% 29.98 in 10.0 mi NNE 4.6 mph - N/A   Clear
10:54 PM 68.0 °F - 64.9 °F 90% 29.98 in 10.0 mi North 4.6 mph - N/A   Clear
11:54 PM 66.9 °F - 64.0 °F 90% 29.98 in 10.0 mi North 4.6 mph - N/A   Clear